Theta_e
313 314 312 312 313 311 311 314 314 315 316 317 316 312 313 322 323 317 316 317 316 316 314 313 314 315 316 316 315 315 316 316 315 315 315 314 314 314 314 314 314 314 315 314 314 314 313 312 312 313 313 313 313 314 315 315 316 317 317 317 318 318 319 318 318 318 318 318 318 317 317 318 319 320 320 319 319 318 318 318 318 319 319 319 319 319 319
315 314 313 312 313 313 312 314 314 314 315 315 316 314 315 320 319 318 320 318 313 312 311 311 311 310 312 314 314 315 315 315 316 315 315 314 313 313 313 312 312 312 313 313 313 313 313 312 312 312 311 311 310 311 313 313 313 313 314 314 313 313 315 315 314 313 314 314 313 311 312 313 314 316 317 317 316 316 316 317 317 317 317 317 317 318 319
316 315 315 312 313 313 313 315 318 318 317 316 315 313 314 317 315 314 318 317 312 310 309 308 308 308 309 311 311 312 312 312 313 314 314 314 313 313 312 312 311 311 311 311 311 311 311 311 311 310 310 310 309 309 309 310 311 311 311 312 311 311 313 313 311 310 312 312 311 310 312 313 313 313 314 314 313 313 314 315 315 316 317 317 317 317 316
314 314 315 314 315 315 316 319 318 316 315 313 311 310 313 316 314 313 316 315 311 310 309 307 307 307 307 308 308 309 309 310 311 311 312 313 314 314 313 312 312 311 311 311 310 310 310 310 310 310 309 310 309 308 308 308 309 308 308 308 308 309 310 310 309 309 309 310 310 310 311 312 311 312 312 312 312 312 313 313 313 315 316 317 317 318 317
314 313 315 316 317 316 318 317 311 310 312 311 310 309 309 312 313 315 314 311 308 308 308 307 307 307 306 307 307 308 309 310 311 310 311 312 313 314 313 312 312 311 311 311 310 310 310 309 309 309 309 309 309 308 308 307 307 307 307 307 307 307 308 309 309 309 309 309 309 310 310 310 309 310 310 310 310 311 311 311 312 312 313 314 315 316 317
313 312 317 318 315 313 314 313 309 309 310 309 309 308 307 308 310 310 309 307 306 307 307 307 307 306 306 306 306 307 308 310 310 310 311 312 313 314 313 312 312 311 311 310 310 309 309 309 309 308 308 308 308 307 307 306 307 307 307 307 307 307 308 308 307 308 308 309 309 309 309 309 309 309 309 309 309 310 310 310 310 311 312 312 313 314 315
314 313 317 317 313 312 312 309 308 308 307 306 306 306 305 306 307 307 307 307 306 305 304 306 306 305 305 306 306 306 307 308 309 309 310 310 311 312 312 311 310 310 310 309 309 309 308 308 308 308 308 308 307 307 306 306 307 307 306 306 307 307 307 308 308 307 307 307 307 307 307 307 307 308 308 308 308 307 308 309 309 309 309 310 311 312 313
313 310 313 315 311 310 311 310 309 309 308 309 309 307 305 306 306 306 306 305 304 302 303 305 305 305 305 305 305 305 305 305 307 308 308 309 310 310 310 310 309 309 308 308 308 308 308 308 308 308 308 308 307 307 307 307 307 306 306 307 307 307 307 307 308 307 307 307 307 308 308 308 307 307 306 306 306 305 305 306 306 306 306 307 307 308 311
314 312 311 312 310 307 309 311 309 306 307 309 310 308 305 304 304 304 304 304 302 301 302 304 305 304 305 305 304 304 304 304 304 305 306 307 307 307 308 309 309 309 308 308 308 308 308 308 307 307 308 307 308 308 308 308 307 306 306 307 307 306 307 307 307 307 307 308 308 308 308 308 308 307 307 307 307 307 306 307 306 305 304 303 303 304 306
315 315 311 310 309 308 309 309 306 305 304 304 307 309 307 304 302 302 303 304 302 300 302 303 303 304 306 305 304 303 303 303 303 304 305 305 305 305 305 306 306 307 307 307 307 307 307 307 307 306 307 307 308 308 308 307 307 305 305 305 306 306 306 306 306 306 306 307 307 308 307 308 308 308 308 309 309 309 309 309 309 307 305 304 304 304 304
312 314 312 310 310 308 308 307 305 304 303 302 306 310 308 304 302 301 301 302 301 300 301 301 302 305 306 305 303 302 302 303 303 303 303 303 303 303 303 304 304 303 304 305 305 306 306 307 306 306 306 307 307 307 307 307 306 305 304 304 305 305 304 304 304 304 305 306 307 307 307 307 307 307 307 308 308 308 308 308 308 307 306 305 305 305 307
310 312 311 309 307 307 306 306 304 302 302 304 307 310 306 302 301 301 300 300 300 300 301 301 302 303 304 303 302 301 301 302 302 302 302 302 302 302 302 303 303 303 303 303 303 304 304 305 305 305 305 305 305 305 305 305 305 305 305 304 304 305 305 305 305 305 305 306 306 306 306 307 307 307 307 307 307 307 307 307 307 306 306 305 306 307 309
310 311 309 306 306 307 306 305 304 301 303 307 307 307 304 301 300 300 299 299 300 299 300 300 300 301 301 300 300 300 300 301 301 301 301 301 301 301 301 302 302 302 303 302 302 302 303 303 303 304 303 304 304 304 304 304 304 304 305 305 305 306 306 306 307 306 306 305 306 307 307 307 308 308 309 309 309 309 309 309 309 308 307 307 307 308 309
309 309 308 306 306 306 304 303 302 301 305 308 306 303 302 300 300 299 298 299 299 299 299 299 299 299 300 300 300 300 300 300 300 300 300 300 301 301 301 301 301 301 302 302 302 302 302 302 302 302 303 303 303 304 303 303 304 304 304 305 305 306 306 306 306 306 306 306 307 307 307 307 307 307 307 308 309 309 309 309 308 307 306 306 307 308 309
307 307 307 306 306 304 302 302 303 303 305 306 303 300 300 300 299 299 298 298 298 298 298 298 298 299 299 299 299 299 300 300 300 299 300 300 300 300 300 300 300 300 300 300 301 302 302 302 301 302 302 302 302 303 303 303 303 303 303 303 304 304 304 304 305 306 306 306 307 306 306 306 306 306 306 306 306 306 306 306 306 306 306 306 307 308 309
306 305 304 305 305 303 300 301 301 301 301 301 300 299 299 299 298 298 298 298 298 298 298 298 298 298 298 298 299 299 299 299 299 299 299 299 299 299 299 299 299 299 299 299 300 301 301 301 301 301 301 301 302 302 302 302 302 302 303 303 303 304 304 304 305 305 305 305 306 306 306 306 306 306 306 306 305 305 305 306 306 307 307 307 308 308 308
302 302 302 302 301 300 299 299 298 298 298 298 298 298 298 298 298 298 298 298 298 298 298 298 298 298 298 298 299 299 299 299 299 299 299 299 299 299 299 299 299 299 299 299 299 300 300 300 300 300 301 301 301 301 302 302 302 303 303 304 304 304 304 304 304 304 304 304 305 305 305 305 306 306 306 306 306 306 307 307 307 307 306 307 308 308 308
299 299 300 299 298 298 298 298 298 298 298 298 298 298 298 298 298 298 298 298 298 298 298 298 298 298 298 298 298 298 298 298 298 299 299 298 299 299 299 299 299 299 299 299 299 299 299 300 300 300 300 300 301 301 301 301 302 302 303 303 303 303 304 304 304 304 304 304 305 305 305 305 306 306 306 306 306 306 306 306 305 305 304 305 306 307 308
301 299 298 298 298 298 298 298 298 298 298 298 298 298 297 298 298 298 298 298 298 298 298 298 298 298 299 299 299 299 298 299 298 298 298 298 298 298 298 299 299 299 299 299 299 299 299 299 300 300 301 301 301 301 302 301 301 301 302 302 302 302 303 303 303 303 304 304 304 304 304 304 305 305 305 305 305 305 305 304 303 303 303 303 304 306 308
301 299 297 298 298 297 297 298 298 298 298 298 298 298 298 298 298 298 298 298 298 298 298 298 298 298 298 299 299 299 299 299 299 299 299 299 298 298 298 298 298 298 298 298 299 299 299 299 300 300 300 301 301 301 301 301 301 301 301 301 302 301 301 301 302 302 302 303 303 303 303 303 304 305 305 305 305 305 304 303 302 303 302 302 302 305 306
301 299 297 298 298 298 298 298 298 298 298 298 298 298 298 298 299 299 299 299 299 298 299 299 298 298 298 298 298 298 298 298 298 298 298 298 298 299 298 299 299 299 299 298 299 299 299 299 299 300 300 300 300 300 300 300 301 301 301 301 301 301 301 301 302 302 303 303 303 303 303 303 304 304 305 305 304 304 302 301 301 301 302 302 303 305 305
302 299 298 297 298 299 298 297 298 298 298 298 298 298 298 298 299 299 299 298 298 298 298 298 298 298 298 298 298 298 298 298 298 298 298 298 298 298 299 299 299 299 299 299 299 299 299 299 299 299 300 299 300 300 300 300 300 300 300 300 300 301 301 301 302 302 302 303 303 303 303 303 303 304 304 304 303 302 301 301 301 302 302 302 304 305 304
299 298 297 297 298 298 298 297 298 298 298 298 298 298 298 298 298 298 298 298 298 298 298 298 298 298 298 298 298 298 298 298 298 298 298 298 298 298 299 299 299 299 299 299 299 299 299 299 299 299 300 300 300 300 299 299 299 300 300 300 301 301 302 302 302 302 303 303 303 303 303 304 304 304 304 303 302 301 300 300 301 302 302 303 304 304 303
297 298 298 297 297 298 298 298 298 298 298 298 298 297 298 298 298 298 298 298 298 298 297 297 298 297 297 297 297 297 297 297 297 297 298 298 298 298 298 298 298 298 299 298 298 298 299 299 300 300 300 300 300 300 300 300 300 300 301 301 301 302 302 302 302 302 303 303 303 304 303 303 303 303 302 301 300 300 299 300 301 302 302 303 303 303 303
297 297 297 297 297 297 297 298 298 298 298 298 297 297 298 298 298 298 298 298 298 297 297 297 297 297 297 297 297 297 297 296 296 297 297 297 297 297 297 297 298 298 298 298 298 298 299 300 300 301 301 301 300 300 300 300 301 301 301 301 301 301 301 301 301 302 303 303 303 302 302 301 301 300 300 299 299 299 299 300 301 302 302 302 302 302 300
297 297 297 298 297 296 297 298 297 297 298 297 297 298 298 298 298 298 298 298 297 297 297 297 296 296 296 296 295 295 295 295 295 295 295 296 296 296 296 296 296 297 297 298 298 299 299 300 300 301 301 301 301 301 301 301 301 301 301 300 300 300 300 301 301 302 302 301 301 300 300 299 299 299 299 299 299 299 300 301 301 301 301 300 300 299 299
297 297 297 297 296 296 297 298 298 298 297 297 297 297 298 298 298 297 297 297 297 296 296 295 295 294 294 294 294 293 293 293 293 292 292 292 293 293 293 293 293 294 295 296 297 299 299 300 300 300 300 300 301 301 301 300 300 300 300 300 300 300 301 301 301 301 300 299 299 299 299 299 299 299 299 299 299 300 300 301 300 300 299 299 298 298 297
297 297 297 297 297 297 297 297 297 297 297 297 297 297 297 297 297 297 297 296 295 295 294 293 293 292 292 292 291 291 291 290 290 290 290 289 289 290 290 291 291 292 292 293 295 297 299 299 299 300 300 299 299 300 300 300 300 300 300 300 300 300 300 300 300 299 299 298 298 298 298 298 298 299 299 299 298 299 299 300 299 298 297 297 296 296 296
297 297 297 297 297 297 297 297 297 296 296 297 297 297 297 297 296 296 295 294 293 293 292 291 291 290 290 290 290 289 289 289 289 289 288 288 288 288 288 289 289 290 290 291 293 295 297 298 299 299 299 299 299 299 299 300 300 300 300 300 300 300 299 299 298 298 298 298 297 297 297 297 297 297 297 297 297 298 298 298 297 296 296 295 295 296 296
297 297 297 297 297 297 297 296 295 295 295 296 296 296 295 295 294 294 294 293 292 292 291 291 290 290 290 290 289 289 289 289 288 288 288 288 288 288 288 288 288 289 290 291 292 293 294 296 297 298 298 298 298 298 299 299 300 300 300 300 300 299 298 298 298 297 297 297 296 296 296 295 295 296 296 296 296 297 297 296 296 296 296 297 297 297 296
297 297 297 296 296 296 296 295 294 294 295 296 295 295 294 293 293 293 293 292 291 291 291 290 290 290 290 289 289 289 289 288 288 288 288 288 288 288 288 288 289 289 289 290 291 292 293 294 296 297 297 297 297 298 299 299 300 300 300 300 299 298 297 297 297 296 296 296 296 296 296 296 296 297 297 297 297 297 297 297 297 297 297 297 297 296 296
297 296 296 296 295 295 295 294 294 294 295 295 295 294 294 293 293 292 292 291 291 290 290 290 290 290 290 289 289 289 288 288 288 287 287 288 288 288 289 289 289 290 290 290 290 291 292 294 295 296 296 296 297 298 298 299 300 300 300 299 298 297 296 296 296 296 296 296 296 296 296 296 296 297 297 297 296 297 297 297 297 297 297 296 296 296 296
296 296 295 295 295 295 295 294 294 294 295 295 294 294 293 293 292 292 291 291 290 290 290 290 290 290 290 290 289 288 288 288 287 287 287 288 288 289 289 289 290 291 291 291 291 291 292 294 295 295 296 296 297 298 298 299 299 300 299 298 297 296 296 296 296 296 296 296 296 296 296 296 296 296 297 297 297 297 297 297 297 297 296 296 296 296 296
296 296 295 295 295 294 294 294 294 294 294 294 293 293 293 292 292 292 291 291 290 290 290 290 290 290 290 290 289 288 288 288 287 287 288 288 289 289 290 290 290 291 291 291 292 293 294 295 295 295 296 296 297 298 298 299 298 298 298 297 296 296 296 296 296 296 296 296 296 296 296 297 297 297 297 297 297 297 297 297 297 297 296 296 296 296 296
296 296 295 295 294 293 293 293 293 294 294 293 293 293 292 291 291 291 290 290 290 289 290 290 291 290 290 290 289 288 288 288 287 288 288 289 289 290 290 291 291 292 292 292 293 295 296 297 296 295 296 296 297 298 299 298 298 297 297 296 296 296 296 296 296 296 296 296 297 297 297 297 297 298 298 298 298 298 297 297 296 296 296 296 297 297 296
296 295 295 294 293 292 292 292 293 293 293 293 292 291 290 289 289 289 290 290 290 290 290 290 290 290 290 290 289 288 288 288 288 288 289 289 290 290 291 292 292 293 293 294 295 296 297 297 296 295 296 297 298 298 298 298 297 296 296 296 296 296 297 297 296 296 296 297 297 297 297 298 298 298 298 298 298 298 298 297 296 296 297 297 297 296 296
295 295 293 293 292 292 292 293 292 292 292 292 291 290 289 288 289 290 291 291 291 290 290 289 289 289 290 290 288 287 288 288 288 289 289 290 290 291 292 293 293 294 295 295 296 297 297 297 297 297 298 298 298 298 297 297 297 296 296 296 296 297 297 297 297 297 297 297 297 297 297 298 298 298 297 297 298 298 298 297 297 297 297 296 296 295 295
294 293 293 292 293 293 293 293 293 292 291 290 289 288 289 289 290 290 291 291 291 290 290 289 288 288 288 289 288 287 288 289 289 289 290 291 291 291 292 293 294 294 295 295 296 297 298 298 298 298 298 298 297 297 297 297 297 296 296 296 297 297 297 297 297 297 297 297 298 297 297 297 297 297 297 297 297 297 297 297 297 296 296 295 295 295 294
293 292 292 292 293 293 293 293 293 292 291 290 289 289 290 290 290 290 290 291 291 291 290 290 290 288 287 287 287 286 287 289 290 290 290 291 291 291 292 293 293 294 294 295 296 297 298 298 298 298 298 297 297 297 297 297 297 296 297 297 298 298 297 297 297 297 297 298 298 297 297 297 297 297 297 296 296 296 296 296 295 295 294 294 294 293 293
293 293 293 293 293 293 293 293 293 292 291 290 291 291 291 291 291 290 290 291 292 291 290 290 291 290 287 286 286 285 286 288 291 292 292 292 292 292 293 293 293 294 294 295 296 297 297 297 298 297 297 297 297 297 297 297 297 296 296 297 298 297 297 297 298 297 298 298 298 297 297 297 297 297 296 296 295 295 295 295 295 294 294 293 292 292 292
294 294 294 294 294 294 293 293 292 291 291 291 292 292 292 291 291 291 290 290 291 292 291 291 291 291 288 286 285 285 285 287 289 291 292 292 293 293 293 293 293 293 294 295 296 296 297 297 297 297 297 297 297 297 297 297 297 296 296 297 297 297 297 297 297 297 297 297 297 297 297 297 296 296 295 295 295 295 295 295 294 294 294 293 292 292 292
294 294 294 294 294 293 293 292 292 292 292 292 292 292 291 291 291 291 289 289 290 292 292 291 291 291 289 287 285 285 285 286 287 288 290 290 291 292 292 292 292 293 294 294 295 295 296 296 297 297 297 297 297 297 297 297 297 297 297 297 297 297 297 297 297 297 297 297 297 296 296 295 295 295 295 295 295 294 294 294 294 294 293 293 292 291 291
294 294 294 294 294 293 293 293 292 292 292 291 291 291 291 291 291 290 288 288 288 290 291 291 291 291 290 288 286 284 285 285 286 287 288 288 289 290 290 291 291 292 293 294 295 295 295 296 296 296 296 296 296 296 296 297 297 297 297 297 297 297 297 297 297 297 296 296 296 295 295 295 295 294 294 294 294 294 294 294 294 293 293 292 292 291 291
294 294 295 294 294 294 294 294 293 292 292 292 291 291 291 290 290 289 288 287 287 287 289 290 291 290 290 288 286 285 285 285 285 286 287 288 288 289 289 290 290 290 291 292 293 294 294 295 295 295 295 296 296 296 296 297 297 297 297 297 297 297 297 297 296 296 296 295 295 295 294 294 294 294 294 294 294 293 293 293 293 292 292 291 290 290 290
294 294 295 295 295 294 295 295 294 293 292 292 291 291 291 290 289 289 289 289 289 288 287 288 289 289 289 288 286 285 285 284 285 285 286 287 287 287 288 288 289 289 288 289 289 290 291 293 294 294 295 295 295 296 296 296 296 297 296 297 297 296 296 296 296 295 295 295 295 294 294 294 294 293 293 293 293 293 293 292 292 291 290 290 289 289 290
295 294 295 295 295 295 295 294 293 293 292 292 292 292 292 291 290 290 291 291 290 290 289 288 287 287 288 287 287 286 285 285 285 285 285 285 286 286 286 286 287 287 287 287 288 288 288 289 291 292 293 294 295 295 295 295 296 296 296 296 295 295 295 295 294 294 293 292 292 292 292 292 292 292 292 291 291 291 290 290 289 289 289 289 290 290 290
295 295 295 295 295 295 294 293 292 292 292 292 292 293 292 291 291 291 292 291 291 290 290 289 288 287 286 286 286 286 285 285 285 285 285 285 285 285 285 285 285 285 286 286 286 287 287 287 288 289 290 291 292 293 294 294 294 294 294 294 294 293 293 293 292 291 290 290 289 289 289 289 289 289 289 289 289 288 288 287 287 288 289 289 290 290 290
296 295 295 295 295 295 295 294 293 292 292 292 293 293 292 292 291 292 292 292 291 291 290 290 290 289 287 286 286 285 285 285 285 285 285 285 285 285 285 285 285 285 285 285 285 286 286 286 287 287 288 288 289 290 290 291 292 292 292 292 292 291 291 290 290 289 289 288 288 288 287 287 287 287 287 287 287 286 286 286 287 288 288 289 289 289 289
296 296 295 295 294 295 295 294 293 293 293 293 294 294 293 292 292 292 292 292 292 291 290 290 290 290 288 287 286 286 285 285 285 285 285 284 284 284 284 285 285 285 285 285 285 285 285 285 286 286 286 286 287 287 287 288 288 289 289 290 290 289 289 288 288 288 288 288 287 287 287 286 286 286 286 286 285 286 286 286 287 287 287 288 288 288 288
296 296 296 295 295 295 295 295 294 293 293 294 294 294 294 293 292 292 292 292 291 291 291 290 291 291 290 288 287 286 286 286 286 286 285 285 285 285 284 284 284 284 284 285 285 285 285 285 285 285 285 285 285 285 286 286 286 286 287 287 288 288 288 288 288 287 287 287 286 286 286 286 286 285 285 285 284 284 285 285 286 286 286 287 287 287 287
295 296 296 296 296 295 295 294 294 294 294 294 294 295 294 293 292 292 292 291 291 291 291 291 291 291 291 289 288 287 286 286 286 286 286 286 286 285 285 284 284 284 284 284 284 284 284 285 285 285 285 285 285 285 285 285 285 285 285 285 285 286 286 286 286 286 286 285 285 285 285 285 285 284 284 284 284 284 284 285 286 286 286 286 286 286 286
294 295 296 296 296 295 295 294 294 294 294 294 294 295 295 294 293 292 292 291 291 291 291 291 291 291 291 290 288 287 286 286 286 286 286 286 286 286 285 285 284 284 284 284 284 284 284 284 284 284 284 284 284 284 284 284 284 284 284 284 284 284 284 284 284 284 284 284 284 284 284 284 284 284 284 284 284 284 284 284 285 286 286 285 285 285 285
Wind_Speed
1 2 2 4 4 3 2 3 3 4 5 6 5 1 1 5 5 3 4 2 4 3 3 2 3 4 6 10 13 17 20 21 22 21 22 21 21 21 22 22 21 19 18 17 16 16 15 14 14 14 14 14 14 15 15 14 14 13 11 10 10 9 10 9 9 10 11 12 11 10 10 12 14 17 17 16 16 17 18 19 19 19 19 18 19 20 20
3 3 5 7 7 5 4 2 0 1 3 5 5 3 2 5 5 4 4 7 5 2 5 5 3 5 9 12 12 11 11 13 13 12 14 18 21 24 25 25 24 22 21 20 19 18 17 16 15 15 14 12 12 14 14 13 13 12 11 10 9 8 9 8 7 7 8 7 6 4 3 4 5 6 7 7 7 7 7 8 8 9 10 10 10 11 12
4 4 6 7 6 5 4 3 4 1 3 3 3 1 1 5 4 2 6 8 5 3 5 4 7 14 18 16 14 12 10 8 7 6 7 11 16 20 24 24 23 22 21 21 21 20 19 18 16 14 13 12 12 13 13 12 11 11 11 11 10 10 10 9 7 7 7 6 5 3 3 3 4 4 5 5 5 4 5 5 6 7 8 8 7 6 6
4 3 5 6 5 6 6 6 6 5 4 4 3 2 2 3 5 4 7 6 0 4 3 4 11 18 19 16 15 16 16 14 11 9 5 10 16 18 21 21 20 19 19 19 19 20 20 18 17 15 14 13 11 10 10 9 8 8 8 8 8 10 10 9 9 8 7 6 6 5 5 5 4 4 4 4 4 5 5 6 7 7 8 9 8 7 7
4 3 4 6 6 7 5 4 5 3 2 7 7 6 6 3 5 5 4 3 2 3 2 5 9 13 14 14 16 17 18 19 17 15 11 9 15 17 17 17 16 16 15 15 15 16 16 16 15 14 14 13 11 9 9 8 6 6 7 5 4 6 7 8 9 9 8 7 7 7 7 6 5 5 5 5 5 5 6 7 8 8 8 9 8 8 7
3 4 3 6 4 2 3 6 5 1 7 13 11 6 8 7 5 4 4 2 2 4 5 8 8 10 13 18 20 21 22 24 23 22 19 14 13 14 14 13 13 14 12 12 12 12 12 13 13 13 13 12 11 9 9 9 7 6 5 4 3 3 4 4 5 7 8 9 9 10 10 10 10 10 9 8 8 9 9 9 9 9 9 10 10 10 10
2 2 5 5 2 5 5 4 3 7 12 15 14 10 9 9 7 6 7 5 5 6 7 9 13 15 19 25 27 25 24 24 25 25 23 20 18 15 13 13 13 13 13 14 14 12 10 9 10 11 12 10 9 9 9 9 8 7 6 4 2 3 3 2 3 4 5 6 7 8 9 10 11 11 11 11 10 10 11 12 12 12 12 12 12 13 13
2 2 4 2 5 4 1 4 5 7 7 8 10 11 10 8 6 5 5 6 7 9 10 10 14 19 24 26 27 25 22 22 23 23 20 18 17 16 13 12 12 9 8 9 11 9 7 8 10 10 10 9 8 8 9 8 8 8 7 4 2 3 2 2 3 5 5 5 6 6 6 7 8 8 9 9 9 9 9 10 11 12 13 13 13 14 14
3 4 2 2 2 2 3 4 3 2 3 2 4 6 5 6 6 5 4 6 8 12 14 8 8 15 22 20 19 22 21 20 21 20 18 16 15 13 10 8 7 4 1 2 4 4 2 5 8 8 5 5 6 6 7 7 7 8 8 6 4 4 3 3 4 5 6 6 7 7 7 8 9 10 11 11 10 10 10 10 10 11 12 12 12 13 13
3 5 2 1 1 4 4 3 4 5 7 3 5 7 3 4 8 8 5 5 7 10 16 13 5 9 13 8 9 16 19 17 17 18 17 16 15 13 12 8 4 2 1 3 3 1 3 4 3 5 4 2 3 4 6 6 5 6 7 8 7 7 7 7 7 7 8 8 9 9 10 11 11 12 12 12 12 12 12 12 13 15 15 15 14 14 13
3 5 3 2 3 4 4 5 7 11 14 6 4 5 3 3 9 11 8 7 9 8 12 16 12 9 6 2 5 13 15 13 14 15 14 14 12 10 10 9 8 8 6 3 3 4 5 6 6 6 4 3 4 5 7 7 6 6 6 7 7 8 9 9 10 11 11 12 12 13 13 14 14 14 14 15 15 16 16 17 17 18 18 18 17 16 15
2 2 2 1 1 1 3 5 7 14 16 7 4 3 0 4 10 10 11 11 12 12 13 15 11 6 3 2 7 12 12 9 9 10 11 12 12 10 9 7 6 6 6 7 4 4 5 6 7 9 9 8 7 8 8 7 7 7 7 9 9 10 10 11 11 12 12 13 14 15 15 15 16 16 16 17 18 18 18 18 18 17 18 18 18 17 15
2 2 3 2 0 1 3 6 10 15 12 5 4 5 5 4 7 11 15 15 14 16 17 14 9 6 7 7 9 10 10 9 9 8 9 10 9 9 9 8 7 5 5 5 5 5 5 6 7 8 9 9 10 10 11 10 9 8 9 10 10 11 12 13 13 14 14 15 14 14 14 14 14 14 15 16 16 17 17 17 17 18 19 19 18 16 16
2 2 3 2 0 1 5 8 12 12 5 1 2 3 1 5 9 13 16 15 14 14 15 12 10 10 10 10 10 10 10 11 11 10 10 10 10 10 9 8 9 9 8 9 9 8 8 9 9 9 9 11 11 11 11 11 10 10 10 11 11 12 13 14 15 16 16 16 15 14 15 16 16 16 16 17 18 19 19 19 20 20 20 19 18 17 16
2 2 3 3 1 3 7 8 7 7 3 4 4 6 7 8 10 13 13 13 13 13 12 12 12 12 11 11 11 11 11 11 12 12 12 12 12 12 11 11 12 12 11 11 12 12 11 13 14 13 13 13 11 11 12 11 11 11 12 14 15 15 16 16 16 16 17 17 18 18 19 19 20 20 20 21 22 23 22 21 19 17 16 16 16 17 16
2 2 2 1 4 3 7 6 5 7 9 7 8 11 10 9 11 12 11 11 12 11 11 11 12 12 12 12 12 13 13 12 13 14 14 14 15 14 14 14 14 14 13 13 12 12 13 14 15 15 16 15 14 13 13 13 13 12 12 13 15 17 18 18 17 18 18 19 19 19 19 19 20 21 21 21 22 21 20 18 16 15 15 15 16 17 18
4 3 1 3 3 3 12 16 15 15 16 15 13 12 10 10 10 10 9 9 10 10 10 10 10 10 11 12 12 14 14 14 14 15 16 16 16 17 17 17 16 17 17 16 15 14 14 15 16 17 17 17 17 17 16 14 13 13 13 13 14 15 16 17 18 18 19 19 19 19 20 20 20 20 19 18 18 18 18 17 17 17 17 17 18 18 19
5 5 4 2 4 11 16 17 17 17 17 15 13 11 10 9 9 9 8 8 9 10 11 11 11 12 13 14 15 16 17 17 18 18 18 19 19 19 19 19 19 20 20 20 19 17 14 12 13 16 18 17 17 18 18 17 16 15 15 14 14 14 14 14 15 16 17 18 19 20 21 21 22 21 21 21 21 21 22 21 20 20 19 19 19 20 20
3 3 5 5 7 12 15 15 16 16 16 15 14 11 9 8 7 8 8 8 10 11 12 13 14 14 14 15 16 17 18 20 21 21 22 23 23 23 23 23 23 23 24 24 23 22 18 13 10 11 13 12 12 12 13 14 16 18 18 17 17 18 17 17 18 18 19 20 21 22 22 23 24 25 25 24 24 24 24 23 22 22 21 20 21 21 20
2 3 0 2 6 10 13 15 15 15 15 14 13 11 8 7 7 8 9 10 11 13 13 13 14 15 15 15 16 18 20 21 22 23 23 24 24 24 25 25 25 26 27 27 26 26 24 19 15 13 12 11 12 12 11 12 13 15 17 18 19 20 21 21 21 21 22 23 23 24 24 24 25 25 26 26 25 24 24 24 24 23 22 22 22 22 20
2 1 1 3 3 4 9 12 12 12 11 11 11 10 8 8 8 9 10 10 12 13 14 15 16 17 18 17 17 18 19 20 21 22 23 23 23 23 23 24 24 25 25 26 27 26 25 22 20 19 17 16 16 16 17 16 16 16 18 19 19 20 21 20 20 21 22 23 24 24 25 25 26 26 26 26 26 26 26 25 23 23 22 20 20 20 17
1 3 2 3 1 2 6 11 11 9 9 10 10 11 11 11 10 11 12 13 14 15 16 16 17 17 18 19 18 19 19 19 20 21 22 23 23 22 22 22 23 23 23 23 25 26 26 24 22 22 22 21 20 21 21 22 22 22 22 23 22 21 20 19 20 21 23 24 25 26 27 27 28 27 27 28 28 28 27 25 23 22 20 18 17 17 16
2 2 1 3 2 2 6 10 10 10 11 12 13 13 13 12 12 12 13 13 14 15 14 13 14 16 17 18 19 20 21 21 21 22 23 24 24 24 23 23 24 24 24 24 25 26 26 25 24 23 23 23 23 23 23 23 22 22 22 21 21 20 18 19 20 22 24 25 26 27 28 28 28 29 30 31 31 30 28 24 22 20 17 16 17 17 17
1 2 3 4 4 4 6 8 10 11 12 13 14 14 13 12 13 12 12 11 11 11 11 11 12 15 16 18 19 21 22 23 23 23 24 24 24 25 25 25 26 26 27 27 27 26 24 22 20 19 19 20 21 21 20 20 20 18 17 17 17 18 18 19 21 23 25 26 27 27 28 29 30 31 31 31 30 28 24 20 19 18 17 18 19 18 15
3 2 2 3 5 6 7 9 11 12 13 15 16 15 14 13 12 12 12 11 10 11 12 13 13 15 16 17 18 19 20 21 21 22 23 24 24 25 25 25 25 25 25 25 25 23 21 18 16 16 17 17 17 18 19 19 18 17 17 17 18 19 20 21 22 23 25 26 26 28 29 30 30 29 27 25 23 20 17 17 18 18 17 17 16 13 12
3 0 3 6 8 9 9 10 12 12 13 14 15 15 14 12 11 12 13 12 12 12 13 14 14 15 16 18 19 20 21 22 22 23 23 25 26 26 26 25 26 25 24 23 23 21 19 18 16 16 15 14 13 14 16 17 17 18 18 18 19 19 20 20 21 22 23 24 25 25 24 23 22 19 17 15 13 13 15 18 18 16 14 13 13 15 15
1 5 7 8 11 13 11 9 10 12 12 12 13 13 11 10 11 12 12 11 11 12 13 14 16 18 18 19 20 20 20 21 22 22 22 23 24 23 23 24 26 27 27 27 25 22 20 19 19 19 18 15 13 13 13 15 16 17 17 17 16 17 18 19 20 21 20 19 16 14 13 12 12 10 10 11 12 14 17 20 21 21 20 19 18 17 16
5 8 8 7 9 11 10 8 9 11 11 11 11 11 10 10 11 11 11 11 12 14 15 16 17 17 16 16 17 17 18 19 20 20 20 20 20 19 19 21 23 26 28 30 29 27 24 22 21 20 19 16 15 15 15 15 16 15 15 14 14 15 17 17 17 15 12 9 6 6 6 7 7 7 9 11 13 16 20 24 25 25 24 23 21 19 17
7 8 8 8 8 10 10 9 10 11 10 9 10 10 10 10 10 9 9 11 13 14 15 16 15 13 13 15 16 17 19 20 20 21 21 21 19 17 18 21 24 26 28 28 27 27 29 28 26 24 21 17 16 16 15 15 14 14 14 14 14 15 14 12 10 7 4 3 3 3 4 7 10 13 15 17 18 21 24 25 26 25 25 23 21 19 18
8 8 9 9 8 8 10 10 11 11 9 8 9 9 9 9 9 6 6 9 11 11 12 13 13 13 14 16 16 17 19 20 19 20 20 19 18 16 16 18 19 20 21 21 20 21 25 29 30 29 26 22 20 18 16 15 14 14 14 14 13 10 7 6 6 5 4 5 7 10 14 18 20 22 22 22 23 24 24 24 24 23 21 20 19 19 19
8 10 10 9 7 8 9 10 10 9 7 7 8 9 8 7 5 3 5 8 10 8 8 11 13 15 17 19 18 18 18 18 17 18 18 18 17 16 16 16 17 18 17 17 16 17 20 24 26 26 23 21 21 20 18 17 16 15 14 12 9 7 6 6 7 8 9 10 12 15 19 22 22 21 20 21 22 22 22 22 21 20 20 19 18 18 18
10 10 9 7 6 7 6 7 8 6 4 5 6 5 4 4 4 4 6 7 6 7 9 12 14 17 19 22 22 19 17 16 16 16 17 17 16 16 16 16 17 17 17 16 15 16 17 20 22 22 19 18 19 20 19 19 19 17 14 11 9 10 10 10 11 12 13 14 15 16 18 19 19 19 19 20 20 19 19 20 20 20 18 17 17 16 15
9 7 5 4 5 5 3 5 7 5 3 4 3 1 2 4 6 5 4 5 7 9 11 13 15 17 19 21 24 22 18 16 16 15 15 15 15 15 15 16 16 16 16 16 16 15 15 17 19 19 18 18 19 19 20 21 20 17 13 11 13 15 15 15 15 16 17 17 16 15 15 15 16 17 18 19 18 17 17 18 18 17 16 14 14 13 12
7 6 5 6 8 7 5 6 6 3 1 1 2 3 2 5 5 5 6 7 8 10 12 14 16 18 18 21 24 24 18 14 13 13 12 12 13 12 12 12 13 14 14 15 17 15 12 13 15 17 20 20 18 18 20 21 19 16 14 15 18 20 19 18 17 17 18 16 13 10 10 11 12 13 15 14 13 12 12 13 12 12 12 12 12 12 12
6 6 7 9 9 8 5 4 4 3 2 4 4 3 3 4 5 6 7 8 10 12 13 14 16 18 18 19 23 23 17 12 11 11 10 10 10 9 8 7 7 7 9 11 14 12 8 9 13 16 20 20 17 17 20 21 20 19 18 19 21 21 18 17 17 16 16 13 10 9 10 10 11 10 10 10 11 10 11 11 12 12 12 11 11 12 12
6 8 9 8 4 1 3 3 3 3 4 5 5 4 4 5 7 8 9 11 12 14 14 14 15 16 16 17 20 22 18 12 10 9 8 8 8 8 8 8 7 5 2 2 4 3 1 7 13 17 19 19 17 19 22 23 24 23 21 21 21 19 16 16 17 16 14 12 10 9 9 9 9 9 9 10 11 11 12 13 14 14 13 12 11 12 12
7 7 5 1 5 8 9 7 6 5 5 5 4 5 5 6 8 8 8 10 12 13 14 14 14 13 13 14 18 21 18 12 8 8 7 8 10 11 11 12 13 14 13 10 9 9 10 12 15 17 18 18 20 23 25 26 26 24 22 21 20 17 15 16 17 16 14 11 9 8 9 10 9 9 10 10 10 11 12 14 15 14 13 12 11 11 11
5 2 4 7 9 9 8 7 7 6 5 4 4 4 5 6 6 7 8 9 10 10 11 14 15 13 11 11 16 19 17 12 8 8 8 9 12 14 15 16 17 19 19 17 16 15 13 13 15 18 20 22 24 25 25 23 22 22 22 21 18 16 16 17 18 16 12 9 7 8 10 11 10 10 10 10 11 12 13 13 13 13 12 11 11 11 10
1 5 7 7 7 7 6 5 5 4 4 4 3 3 4 5 6 7 7 8 9 7 8 12 16 17 14 12 14 17 17 14 10 9 9 10 13 16 16 16 17 17 17 16 16 16 16 15 16 19 21 22 22 22 21 19 19 22 23 20 17 17 18 18 16 14 11 8 8 9 11 11 9 8 9 10 11 12 12 12 11 11 10 9 9 9 9
3 6 7 6 6 5 3 2 3 5 4 3 3 3 4 5 5 6 6 6 6 6 6 10 15 18 17 14 14 15 15 14 12 12 12 14 16 17 17 17 17 17 15 14 14 13 13 14 15 18 19 19 19 18 18 17 18 22 22 18 17 18 18 15 12 11 10 9 9 11 10 10 9 9 10 11 11 12 12 11 10 9 8 8 7 7 6
1 3 4 4 5 4 3 3 5 5 4 3 4 4 4 4 5 7 7 5 4 5 6 9 13 17 18 17 15 14 14 13 12 13 14 16 18 20 21 21 20 18 17 16 15 15 14 13 14 15 16 17 17 17 17 17 19 20 20 17 16 17 16 13 12 12 12 11 11 11 10 10 11 12 12 13 13 12 11 11 10 9 8 7 6 6 5
3 1 1 2 5 6 5 5 5 3 2 2 3 3 3 2 5 8 7 4 2 3 5 8 10 14 16 17 16 15 14 14 12 12 14 16 18 20 22 22 21 19 19 19 18 18 18 16 14 13 12 13 13 14 16 19 21 21 20 18 17 16 15 14 14 14 13 12 11 11 11 11 12 13 13 13 13 12 11 11 10 9 9 8 8 7 6
4 3 2 4 6 6 4 3 2 1 1 2 3 3 3 3 5 7 6 4 2 2 3 5 8 10 13 14 14 14 14 14 13 13 14 16 17 18 18 18 18 18 18 19 20 20 19 18 17 15 13 11 12 13 15 18 20 21 21 20 19 17 16 15 14 13 12 12 11 11 12 12 12 12 13 12 12 11 11 10 10 10 10 10 10 9 8
6 6 4 4 5 6 4 2 2 2 0 3 4 3 3 4 5 5 5 6 7 5 3 3 6 8 10 11 13 13 14 14 13 12 12 13 15 15 15 14 14 14 15 17 18 18 18 17 16 15 14 13 12 12 14 16 18 19 19 19 17 16 14 13 12 11 11 11 11 11 11 11 11 11 11 11 10 10 10 9 10 10 10 10 8 7 5
8 8 7 6 7 6 4 4 5 3 0 2 3 3 3 4 4 4 6 9 11 10 8 6 6 7 9 11 12 12 12 12 12 10 9 10 12 13 12 11 11 12 13 14 15 17 16 15 13 13 13 12 12 11 12 13 14 15 15 15 14 13 12 11 10 10 10 10 10 10 11 11 11 11 10 10 10 10 10 10 10 10 9 7 5 3 3
10 9 8 8 9 7 6 5 6 5 3 3 4 4 4 3 3 4 6 9 10 11 11 10 9 8 9 10 11 11 10 10 10 10 10 10 11 12 11 10 9 10 10 11 12 14 14 13 11 10 9 9 9 10 11 11 12 12 12 12 12 11 11 10 10 9 8 8 8 8 9 10 10 10 10 10 10 10 9 9 8 6 4 3 3 4 4
13 13 12 12 11 10 9 8 8 7 6 6 7 7 5 1 3 4 5 6 7 8 10 11 11 10 9 9 9 9 8 7 8 8 9 10 10 11 11 10 10 10 10 9 10 10 10 10 10 10 8 7 7 7 8 9 9 9 10 10 10 10 10 9 8 7 7 6 6 6 7 7 7 7 7 7 7 7 7 7 6 5 5 6 6 5 5
13 15 15 14 14 13 12 10 10 10 10 9 9 9 8 3 1 2 2 3 3 4 6 9 11 11 10 9 8 8 7 7 7 7 8 9 9 9 10 10 10 11 10 10 10 9 9 8 8 8 8 7 7 8 8 8 8 8 8 8 8 8 7 7 6 6 6 6 6 6 6 6 6 5 4 3 3 4 5 6 6 6 7 8 8 7 7
12 14 15 16 16 17 16 14 14 13 12 11 9 10 9 7 4 2 1 1 2 2 3 6 9 11 10 9 9 8 7 7 7 7 8 8 8 8 9 10 10 11 11 10 10 10 10 9 8 7 7 6 7 7 7 7 7 8 8 8 8 7 6 5 5 4 3 3 4 4 4 4 4 4 3 3 3 3 4 5 6 7 7 8 9 9 8
10 12 15 16 18 19 19 19 17 16 15 13 11 10 10 10 8 6 4 3 4 3 3 4 7 9 10 9 8 7 7 6 6 7 8 8 8 9 9 10 10 11 11 11 10 10 10 9 9 8 8 7 7 7 7 7 7 7 7 8 8 7 6 5 4 3 2 2 2 2 2 2 2 2 2 2 2 3 3 4 5 6 7 8 9 9 9
10 11 12 13 14 17 20 21 20 18 17 15 13 11 10 11 11 9 6 5 6 6 5 5 6 7 8 8 7 5 5 5 5 5 6 6 7 8 9 9 10 10 10 10 11 11 10 9 9 9 8 8 8 8 8 9 8 8 7 6 6 6 6 5 4 4 3 3 3 3 2 2 2 2 2 2 3 2 2 3 3 4 6 8 9 10 10
10 11 11 10 11 12 15 19 21 20 17 16 14 12 11 12 13 12 10 8 8 7 6 6 7 7 7 7 6 4 3 3 3 3 3 4 5 6 7 7 8 8 8 9 10 10 10 9 9 9 8 8 8 8 8 8 8 8 7 6 6 5 5 5 4 4 3 3 2 2 2 2 2 2 2 2 3 4 4 4 2 3 5 7 8 9 9
Wind_Direction
151 132 52 21 52 81 74 61 58 50 51 69 82 66 202 131 118 204 243 96 117 219 307 21 222 211 165 167 167 162 165 167 166 166 165 162 161 163 162 161 163 163 162 159 153 147 142 135 133 132 128 128 129 132 131 129 130 130 129 134 145 156 167 176 184 193 204 214 222 228 233 237 241 244 246 245 244 248 252 253 254 258 259 257 254 253 252
18 21 34 41 45 45 56 74 214 78 95 118 136 192 194 110 116 187 159 104 92 333 338 356 11 69 106 131 142 142 150 161 166 173 179 176 170 166 163 157 153 153 154 155 155 155 151 145 143 140 136 132 131 137 141 138 135 134 136 143 145 144 150 157 160 169 181 188 191 191 199 208 218 224 224 225 227 231 238 247 251 254 257 261 262 261 260
336 346 41 51 54 62 50 334 287 337 73 86 122 165 81 85 89 72 84 84 65 4 350 4 53 72 81 92 98 95 94 117 147 175 210 211 193 176 169 165 161 158 155 153 153 154 155 153 150 146 140 136 132 132 136 141 144 147 151 158 161 155 155 159 168 180 184 185 195 211 206 201 207 212 209 210 219 229 235 244 251 256 261 265 271 281 287
287 319 47 43 43 59 40 350 337 8 40 50 61 50 39 119 142 94 68 83 55 306 335 31 60 67 68 67 71 74 74 80 97 111 145 207 208 187 173 172 174 170 164 160 155 153 155 156 156 154 149 146 144 141 141 144 146 149 157 167 175 173 171 176 183 189 192 193 198 204 202 204 213 214 214 218 226 236 243 249 255 260 261 261 264 273 287
268 289 64 58 42 38 11 315 309 318 75 81 64 27 11 42 126 118 105 145 243 304 34 69 61 61 64 63 64 68 71 74 78 81 96 162 193 183 173 175 175 167 157 153 153 152 154 156 155 154 155 158 160 157 159 161 146 132 134 138 160 178 184 194 199 201 205 206 209 215 216 219 226 229 232 240 248 256 262 265 268 273 273 270 267 267 275
249 275 53 58 41 31 249 256 280 306 105 93 77 40 12 18 49 89 104 100 4 15 67 92 88 76 73 70 67 68 71 76 79 79 86 118 150 159 163 164 157 151 141 133 136 140 146 154 153 148 149 158 166 166 170 173 163 149 144 129 120 157 171 191 202 205 213 219 225 231 234 237 242 245 247 252 260 267 269 273 276 278 279 277 272 268 267
196 284 53 52 280 224 223 270 10 80 101 98 87 63 28 19 27 47 54 38 16 25 58 95 101 91 82 73 65 63 65 71 77 78 81 93 103 111 125 125 120 128 133 128 123 118 121 136 144 145 146 152 167 173 174 176 175 174 172 154 124 145 158 169 196 213 228 235 237 238 240 244 247 250 252 255 259 263 265 267 270 273 276 277 274 271 269
153 111 91 142 230 235 284 350 27 75 83 77 75 58 26 7 4 21 34 18 6 21 46 95 107 88 79 71 59 55 59 61 67 73 77 83 87 89 102 113 113 112 112 117 116 107 106 121 126 134 148 156 162 170 174 180 182 178 177 178 192 202 195 193 216 233 243 241 242 244 245 250 259 265 266 265 265 266 265 265 268 273 276 276 275 273 271
144 141 167 203 243 278 338 352 353 52 24 348 112 91 42 2 0 15 36 21 12 23 34 67 118 88 74 63 44 46 53 53 57 66 74 83 84 77 85 124 151 146 83 78 101 95 155 158 124 104 118 156 167 178 187 193 194 191 194 201 211 227 244 245 239 244 246 245 248 251 251 256 265 272 274 274 274 276 277 277 282 286 286 285 283 279 274
118 121 160 181 198 232 253 297 298 318 327 284 155 112 69 347 359 19 47 35 25 34 33 33 67 85 70 48 15 33 42 43 51 59 66 76 77 69 70 83 104 124 216 231 199 207 266 242 160 107 94 129 186 206 219 230 231 223 221 219 223 243 264 268 261 258 260 261 263 263 263 261 261 263 265 266 268 273 275 277 282 288 290 290 289 287 286
109 126 153 170 184 214 247 274 294 322 331 318 143 94 62 322 346 14 53 46 29 40 39 38 52 71 67 353 353 22 26 28 42 51 55 59 57 54 59 60 52 45 27 339 261 243 272 273 246 230 236 251 250 241 244 255 258 254 253 250 252 264 271 271 269 266 266 267 267 268 269 266 265 265 266 267 268 269 271 272 276 280 283 285 287 288 289
57 116 133 140 166 212 259 267 303 331 338 357 104 117 94 322 343 21 65 60 43 46 47 45 54 68 61 354 6 21 22 17 24 29 32 35 35 35 36 32 27 27 20 12 351 286 277 273 266 269 267 254 245 240 235 240 254 263 271 278 282 282 278 274 271 266 267 271 271 272 272 271 271 271 272 272 272 273 273 273 274 276 279 282 285 288 289
51 78 99 95 143 253 271 288 327 338 341 24 102 189 231 330 17 52 64 59 50 47 46 46 45 36 31 19 11 17 19 15 13 8 360 359 3 11 16 14 2 337 314 324 334 326 317 298 283 282 272 256 251 249 243 243 250 257 263 270 273 272 270 269 265 265 272 276 273 271 271 271 270 269 269 270 270 271 272 272 275 280 283 283 283 286 288
30 94 110 86 12 305 298 307 340 1 14 142 159 175 143 40 51 59 54 49 44 36 34 35 25 12 11 8 2 1 360 359 359 354 346 339 334 336 338 342 346 338 317 302 293 293 313 316 302 287 281 275 266 257 252 253 253 256 262 264 262 260 262 265 267 270 274 271 267 271 277 277 274 271 271 272 271 272 274 276 280 284 285 285 283 282 284
37 63 68 82 147 313 326 319 335 20 66 192 183 111 85 60 51 47 41 38 32 19 13 10 2 356 352 349 347 343 337 336 335 334 334 329 324 326 325 321 324 327 325 317 299 284 293 307 305 293 287 284 273 257 254 259 263 264 265 262 262 264 267 268 269 270 268 265 266 272 277 277 276 275 274 274 274 276 279 281 283 284 286 287 285 283 284
79 69 35 166 211 289 7 39 67 59 58 76 96 90 74 53 42 34 26 24 19 11 5 358 349 344 340 335 330 325 321 319 317 315 316 315 313 314 314 311 311 311 311 313 307 293 286 290 293 292 288 286 279 267 259 258 258 253 250 251 255 259 263 265 265 267 269 269 268 268 269 273 276 275 274 274 273 274 276 277 278 279 281 283 283 283 284
92 114 172 212 227 29 55 68 71 62 55 57 65 67 55 40 27 15 7 5 358 351 350 346 339 335 331 324 320 316 313 312 310 306 304 304 305 304 301 299 300 301 300 301 303 301 292 282 279 282 283 282 280 275 268 262 253 241 236 240 248 252 256 260 263 266 269 268 266 267 270 274 275 272 270 268 265 264 267 271 275 278 279 279 278 278 278
84 65 32 26 56 56 60 62 56 48 44 39 35 34 26 16 6 355 348 344 336 332 328 323 320 321 319 315 313 309 304 302 301 299 296 294 294 295 294 293 292 292 292 291 293 298 302 298 291 289 286 280 276 272 267 263 257 249 244 244 248 253 255 257 260 262 263 265 267 268 270 271 271 272 272 270 268 268 270 273 278 282 281 277 275 273 272
92 51 358 10 55 53 44 38 31 27 27 22 17 16 11 1 349 335 328 324 321 321 318 314 312 312 311 311 310 307 304 300 297 295 293 291 290 289 288 289 289 288 288 289 288 290 294 300 309 308 294 276 258 247 245 248 251 252 252 253 254 258 260 262 263 263 264 266 269 270 271 272 273 273 274 273 271 271 271 273 278 280 277 273 272 268 262
110 148 224 44 76 57 37 28 20 13 9 3 1 7 9 358 340 324 316 312 310 309 309 310 309 307 307 309 308 306 304 302 299 297 295 293 291 289 287 286 285 285 285 286 286 286 285 285 288 293 292 280 265 253 246 244 246 249 253 256 259 262 266 268 267 267 268 270 272 274 277 277 275 272 271 269 269 269 270 274 276 274 270 269 269 263 257
44 129 41 39 77 51 23 20 17 11 3 352 349 352 347 342 338 326 315 308 304 303 305 306 305 304 303 304 304 304 303 301 300 300 298 296 294 291 289 286 284 283 283 282 282 283 282 280 279 280 280 279 277 273 269 266 264 265 267 269 270 270 269 268 267 268 271 272 275 278 280 280 278 274 270 268 268 271 274 277 275 269 265 264 263 260 260
349 262 302 29 101 254 340 1 6 360 348 340 338 336 331 331 331 324 317 311 305 303 305 304 303 301 298 297 296 296 296 297 297 296 295 293 292 290 289 286 283 282 283 283 283 283 283 281 279 276 275 274 274 275 274 272 271 272 275 278 278 275 272 271 272 274 276 277 278 279 279 278 276 273 272 272 273 275 277 274 269 264 261 257 255 257 260
213 249 356 47 70 267 324 347 346 335 332 331 330 328 327 326 323 317 315 313 309 306 304 301 297 293 291 291 291 292 292 293 292 290 288 287 287 288 288 286 284 283 283 283 284 285 286 286 282 278 277 275 275 275 274 273 272 271 271 272 272 272 273 274 275 277 278 278 277 276 275 274 273 273 274 275 275 276 274 266 258 253 248 244 246 249 253
157 41 30 23 11 342 333 331 322 320 323 323 321 320 320 320 317 311 306 305 305 299 292 287 284 283 283 285 287 288 288 288 287 286 284 283 283 283 282 283 283 282 281 281 283 284 286 285 280 274 271 270 270 269 267 266 266 264 264 266 268 270 273 275 275 275 274 272 272 272 272 273 273 273 273 273 273 272 267 253 240 236 235 238 242 242 240
106 87 20 344 339 338 329 312 305 310 314 314 316 316 313 311 310 305 299 295 292 288 285 283 282 281 284 285 286 286 286 284 282 280 279 278 278 277 276 277 277 276 276 276 276 278 279 275 266 259 257 256 258 259 258 258 258 258 262 269 274 276 277 276 274 271 270 269 271 273 273 273 271 269 268 266 265 261 247 228 221 226 230 232 228 210 193
114 255 305 305 310 321 325 312 307 311 311 309 310 309 305 301 297 293 291 288 285 285 286 288 288 287 288 288 287 285 283 282 280 280 279 278 277 276 276 274 271 269 269 269 268 266 264 259 253 250 248 243 242 247 253 257 261 264 268 273 278 278 276 274 272 271 272 273 273 272 271 268 264 260 254 248 247 242 228 214 204 198 190 181 172 165 163
354 321 315 306 306 317 323 314 309 312 309 305 305 303 299 292 285 283 284 284 285 287 290 294 296 295 293 291 290 289 288 289 290 291 290 287 282 278 275 274 271 267 264 260 257 252 249 247 248 249 249 245 242 247 256 263 267 270 271 273 276 276 273 272 273 274 274 274 272 268 264 258 251 241 229 225 230 229 214 192 172 158 152 151 153 158 162
317 321 325 320 309 310 314 311 306 306 305 305 304 300 293 288 286 285 284 285 292 300 305 307 308 306 306 308 310 309 310 311 311 310 307 302 295 285 275 271 270 268 264 260 253 245 241 242 244 245 250 255 256 257 261 264 265 269 271 272 274 275 275 275 274 272 271 270 264 255 250 243 230 214 206 206 206 196 179 164 154 149 149 149 150 151 153
313 316 319 315 298 292 294 296 300 306 311 310 305 300 296 296 297 296 297 304 315 320 317 316 319 322 325 327 325 322 320 318 316 315 313 309 303 294 283 274 270 268 267 266 259 248 242 242 243 243 245 250 254 255 256 258 262 267 269 272 276 278 275 271 265 259 250 236 223 204 179 164 159 159 161 160 157 153 150 147 146 146 145 146 148 150 153
310 310 310 306 294 287 293 301 310 316 314 306 306 312 316 317 317 318 320 322 323 320 316 323 337 346 344 338 332 327 322 318 315 314 314 313 311 306 299 291 286 282 277 274 267 254 244 241 241 243 245 246 247 247 248 254 260 261 262 269 275 272 258 239 227 215 197 179 166 153 148 148 148 148 148 145 143 144 145 146 147 148 148 150 153 156 159
299 305 308 307 303 302 308 319 326 319 303 304 322 333 338 340 340 329 313 314 318 324 340 355 5 8 4 357 349 337 327 322 318 315 315 316 315 311 307 302 298 295 290 283 274 261 248 240 239 240 240 240 238 234 235 245 251 248 252 261 257 225 197 190 190 190 184 174 164 160 161 161 158 155 151 147 146 149 150 150 150 150 149 149 153 158 162
298 308 315 321 317 307 306 321 326 317 305 325 335 336 351 2 346 314 308 323 349 13 18 16 13 9 5 3 359 348 335 328 325 322 320 320 317 312 309 304 298 294 292 290 283 271 255 242 235 232 227 225 224 220 223 234 239 237 239 241 215 183 172 170 170 174 174 166 158 154 155 155 154 152 150 149 151 153 153 152 152 150 147 148 154 161 167
299 307 317 323 313 298 293 317 318 309 308 328 326 147 86 7 348 345 7 32 36 29 19 14 8 1 357 358 360 356 343 332 330 329 327 326 323 317 311 307 301 296 293 291 290 285 265 244 232 224 214 212 213 212 216 223 225 221 219 207 180 164 157 152 151 153 153 148 142 140 140 141 143 146 150 153 156 157 155 154 154 153 153 157 165 172 177
296 301 305 305 300 294 295 307 306 288 225 191 156 130 58 5 4 30 46 39 24 14 9 4 359 354 351 353 357 357 349 337 335 336 334 333 332 325 318 310 302 297 293 288 289 291 273 241 224 211 201 201 205 208 211 213 208 200 193 178 163 156 152 147 144 145 146 145 143 144 146 145 144 148 155 161 165 169 175 178 174 170 170 176 188 197 199
294 298 301 299 294 289 282 277 273 253 184 149 134 102 44 30 43 51 43 29 17 9 4 359 353 349 345 346 354 359 355 342 337 340 343 345 344 338 337 335 317 300 291 285 287 290 269 223 206 193 188 190 195 200 204 202 193 184 178 167 159 157 155 151 150 152 152 152 151 145 139 136 135 139 150 161 166 171 181 191 196 194 193 198 205 209 208
287 296 300 300 301 5 111 130 169 189 171 147 124 97 78 73 69 60 49 37 26 18 12 5 353 343 337 340 353 3 1 350 344 351 359 8 13 16 24 34 38 39 32 287 289 312 140 166 173 173 175 181 187 191 192 189 183 178 172 165 161 160 157 156 159 160 157 155 152 145 139 136 135 131 131 136 144 151 159 171 183 192 199 205 207 205 203
295 305 313 11 107 106 103 103 109 123 137 134 117 105 98 86 73 60 43 27 20 20 20 12 358 346 338 341 354 4 6 1 359 13 26 35 39 43 49 56 62 66 73 83 94 97 108 131 149 161 171 179 181 181 181 180 178 174 168 164 162 160 157 159 163 162 155 149 150 159 163 156 144 137 133 133 141 154 163 171 180 188 193 196 194 192 193
311 347 102 118 116 112 107 103 105 110 118 122 119 108 95 78 62 45 25 8 1 8 17 15 8 4 1 355 358 8 15 18 21 30 40 47 52 54 54 56 61 64 67 77 96 114 128 143 157 167 171 170 168 169 172 174 174 170 165 163 162 160 158 160 162 161 156 148 147 160 164 157 145 144 151 157 163 169 174 179 184 186 187 187 188 193 199
19 116 130 130 125 123 122 118 122 130 131 125 115 93 74 59 39 25 14 1 352 355 10 13 13 18 21 13 7 14 23 30 36 43 49 56 61 63 62 62 64 66 69 79 99 119 137 152 161 162 161 160 161 164 167 169 169 168 165 163 162 162 161 161 161 160 156 149 144 148 153 154 155 158 163 168 174 177 179 183 186 186 187 191 198 206 212
79 110 122 119 117 125 131 133 149 158 153 123 93 68 56 42 19 3 359 358 358 360 2 4 11 19 25 23 20 23 30 37 45 54 60 64 69 72 71 69 69 70 74 79 89 102 120 135 143 146 148 151 156 159 160 162 166 168 169 169 166 165 164 164 164 163 160 158 160 163 166 173 180 181 177 176 179 181 182 185 187 191 196 202 205 208 210
79 98 107 107 114 122 129 138 144 147 138 108 85 61 43 27 356 344 345 353 2 8 8 7 11 18 22 24 27 33 37 41 48 55 57 59 63 66 66 65 65 68 74 80 85 90 98 111 124 134 143 150 154 157 161 164 168 172 176 177 173 170 169 169 171 172 171 172 175 178 181 185 187 185 181 180 181 184 189 194 198 203 211 216 219 218 215
228 208 157 141 137 132 130 134 134 118 80 70 64 37 23 357 332 336 345 350 334 341 0 9 11 14 19 22 26 34 40 44 49 54 56 55 56 59 61 61 63 68 74 80 84 86 88 93 101 112 130 149 158 161 164 167 170 175 179 180 176 173 174 175 176 177 178 179 180 182 183 185 186 185 184 185 187 191 197 204 211 221 230 238 243 247 248
226 222 197 167 162 156 148 147 151 123 42 20 19 19 12 345 333 340 355 17 22 334 339 357 8 17 21 22 23 31 39 42 44 50 56 57 57 57 58 58 60 65 71 77 81 82 82 84 87 93 106 129 147 154 158 163 167 172 176 177 177 176 177 180 182 182 181 180 180 180 180 184 187 189 191 194 197 200 206 216 227 235 242 248 254 260 264
217 223 221 205 194 187 182 203 222 210 13 2 2 7 360 347 345 356 28 50 51 42 21 3 12 24 28 26 24 29 37 41 42 46 54 61 64 63 61 58 56 57 62 70 77 81 83 85 88 93 100 113 130 144 153 157 160 164 167 170 173 175 177 179 180 180 179 179 180 182 185 190 195 199 202 206 209 214 220 230 239 245 251 256 259 261 258
223 235 244 244 233 217 212 236 243 228 218 351 345 352 358 356 6 47 70 64 54 44 36 26 20 26 33 36 32 29 32 41 46 48 52 63 70 68 64 60 56 52 51 58 67 74 79 84 91 99 104 108 116 128 138 145 151 157 160 162 166 169 171 171 170 170 174 179 184 190 197 201 205 209 213 216 221 227 234 242 249 254 258 259 250 226 200
233 241 246 248 243 229 216 218 220 211 218 280 296 307 333 8 50 69 69 63 53 44 37 32 25 21 29 37 38 33 31 38 47 50 53 62 70 73 70 67 64 59 54 55 62 67 72 78 86 99 111 120 125 129 133 138 145 151 154 157 160 163 165 166 168 169 173 180 187 194 201 207 212 216 220 224 230 236 240 241 242 241 231 199 165 149 140
233 237 241 244 240 229 214 204 202 207 222 248 269 285 301 352 79 70 54 51 50 41 33 30 28 26 29 34 40 43 43 44 49 55 58 61 67 72 72 69 67 65 63 62 65 69 73 78 83 92 106 122 133 138 141 147 153 157 159 161 164 165 167 169 170 169 169 169 173 180 187 194 199 204 211 218 224 223 217 211 203 182 157 146 140 132 120
236 239 242 241 236 230 223 215 209 211 219 232 253 270 276 266 146 89 46 30 28 23 18 19 21 24 30 36 43 51 57 57 59 67 71 69 67 69 71 69 67 67 66 67 70 72 74 77 83 89 98 109 119 128 137 147 156 163 167 169 170 171 172 170 166 161 158 153 149 151 155 155 155 156 159 162 168 170 170 171 167 154 142 136 130 121 111
243 244 246 245 240 235 229 222 217 216 218 226 243 257 257 246 220 184 198 282 308 328 349 359 4 11 20 30 36 42 50 57 64 72 79 81 78 75 74 74 72 71 70 71 73 75 75 76 80 86 91 99 106 114 123 134 146 158 167 174 175 175 173 168 160 150 141 128 123 124 127 128 128 124 110 102 109 122 131 139 145 143 134 125 119 115 110
251 244 244 247 246 239 231 226 224 223 223 231 244 251 246 239 231 222 221 237 246 250 274 318 342 355 5 15 24 30 35 41 50 60 70 79 84 84 82 79 76 76 76 76 76 76 75 74 74 78 83 88 93 99 108 118 129 140 153 166 173 176 177 179 177 172 166 155 146 144 146 148 149 137 119 125 142 141 123 120 131 135 127 120 120 122 120
264 256 255 258 256 247 237 232 228 226 227 234 241 245 242 240 238 232 225 223 223 227 243 274 304 328 347 360 10 22 28 30 35 46 54 60 67 73 74 72 69 71 74 75 77 78 77 75 73 75 77 80 84 89 94 100 107 114 124 139 155 166 174 182 185 187 189 186 175 163 159 167 180 183 165 151 146 126 92 89 115 132 130 129 134 135 131
268 268 269 269 266 258 247 237 231 228 228 231 232 234 239 244 239 229 220 220 226 234 250 272 286 299 320 336 342 347 3 21 34 53 66 69 70 70 69 66 63 61 60 62 66 70 72 72 73 74 77 81 84 86 88 91 95 99 101 104 111 123 135 145 153 162 173 182 174 154 142 142 150 157 141 95 65 51 46 51 85 138 145 146 149 148 142